sat.trackr.live / text

‹ back to catalog

STARLINK-4714

NORAD 53704 · 2022-107E

PAYLOAD ACTIVE UNKNOWN

§ Identity

Operator
Country
US
Launch date
2022-09-05
Launch site
AFETR
Launch vehicle
Mass (kg)
RCS (m²)

Purposes: comms

External: N2YO · Heavens-Above · Gunter

§ Orbital elements

Epoch: 2026-05-25T00:30:12.447360Z

Period
95.44 min
Inclination
53.2132°
Eccentricity
0.0001142
Mean motion
15.08838491 rev/d
Perigee alt
539.0 km
Apogee alt
540.5 km
Semi-major
6,917.9 km
B*
3.1688e-5
RAAN
261.7100°
Arg perigee
93.1587°
Mean anomaly
266.9536°
Rev number
20,621

§ Raw data

STARLINK-47141 53704U 22107E   26145.02097740  .00000217  00000+0  31688-4 0  99972 53704  53.2132 261.7100 0001142  93.1587 266.9536 15.08838491206210

JSON: /api/v1/satellites/53704 · /tle

For live sub-satellite position, see the globe view (requires WebGL).

§ Visibility from observer

Set your observer location to see the next 7 days of passes ≥ 10°. The values pass through the URL so the page stays shareable.

No JS? Fill the form by hand. The geolocation button needs JavaScript.